Date String (YYYY-MM-DD hh:mm:ss) UTC,Instrument flags,Ambient pressure (hPa),Sample flow (lpm),Bypass flow (lpm),Sample temperature (°C),Ambient temperature (°C),ASC tube jacket temperature (°C),LED temperature (°C),Box temperature (°C),Sample RH (%),Span deviation,Mass concentration (μg/m³),Mass concentration (μg/m³),Mass concentration (μg/m³)
DateTimeUTC,F1_M11,P_M11,Q1_M11,Q2_M11,T1_M11,T2_M11,T3_M11,T4_M11,T5_M11,U1_M11,ZSPAN_M11,X0_M11,X2_M11,X1_M11
2021-11-01 19:00:00,,0832.4,5.00,0.00,23.2,22.4,00.0,32.2,25.0,19.0,0000.0,0007.75,0006.17,0006.04
2021-11-01 19:01:00,,0832.4,5.01,0.00,23.2,22.4,00.0,32.2,25.0,19.0,0000.0,0007.80,0006.17,0006.05
2021-11-01 19:02:00,,0832.3,4.99,0.00,23.2,22.4,00.0,32.2,25.0,19.0,0000.0,0007.84,0006.17,0006.04
2021-11-01 19:03:00,,0832.2,5.02,0.00,23.2,22.4,00.0,32.2,25.0,18.9,0000.0,0007.78,0006.16,0006.05
2021-11-01 19:04:00,,0832.3,4.99,0.00,23.2,22.4,00.0,32.2,25.0,18.8,0000.0,0007.77,0006.15,0006.06
2021-11-01 19:05:00,,0832.3,5.01,0.00,23.2,22.4,00.0,32.2,25.0,18.8,0000.0,0007.74,0006.15,0006.06
2021-11-01 19:06:00,,0832.3,5.00,0.00,23.2,22.4,00.0,32.2,25.0,18.9,0000.0,0007.73,0006.16,0006.08
2021-11-01 19:07:00,,0832.2,4.99,0.00,23.2,22.4,00.0,32.2,25.0,18.9,0000.0,0007.77,0006.18,0006.09
2021-11-01 19:08:00,,0832.1,5.01,0.00,23.2,22.4,00.0,32.2,25.0,18.8,0000.0,0007.79,0006.19,0006.10
2021-11-01 19:09:00,,0832.1,4.99,0.00,23.2,22.4,00.0,32.2,25.0,18.7,0000.0,0007.80,0006.20,0006.10
2021-11-01 19:10:00,,0832.2,5.01,0.00,23.2,22.4,00.0,32.2,25.0,18.7,0000.0,0007.84,0006.23,0006.12
2021-11-01 19:11:00,,0832.2,5.00,0.00,23.3,22.4,00.0,32.2,25.0,18.7,0000.0,0007.85,0006.25,0006.14
2021-11-01 19:12:00,,0832.2,4.99,0.00,23.3,22.4,00.0,32.2,25.1,18.7,0000.0,0007.81,0006.25,0006.15
2021-11-01 19:13:00,,0832.2,5.00,0.00,23.3,22.5,00.0,32.2,25.1,18.7,0000.0,0007.77,0006.27,0006.17
2021-11-01 19:14:00,,0832.2,5.00,0.00,23.3,22.5,00.0,32.2,25.1,18.7,0000.0,0007.77,0006.28,0006.19
2021-11-01 19:15:00,,0832.3,5.00,0.00,23.3,22.5,00.0,32.3,25.1,18.9,0000.0,0007.77,0006.30,0006.21
2021-11-01 19:16:00,,0832.1,5.01,0.00,23.3,22.5,00.0,32.3,25.1,19.1,0000.0,0008.02,0006.31,0006.22
2021-11-01 19:17:00,,0832.1,5.00,0.00,23.3,22.5,00.0,32.3,25.1,19.1,0000.0,0008.36,0006.31,0006.23
2021-11-01 19:18:00,,0832.1,5.00,0.00,23.3,22.5,00.0,32.3,25.1,19.0,0000.0,0008.35,0006.32,0006.24
2021-11-01 19:19:00,,0832.1,5.01,0.00,23.3,22.5,00.0,32.3,25.1,19.0,0000.0,0008.36,0006.33,0006.25
2021-11-01 19:20:00,,0832.1,4.99,0.00,23.3,22.4,00.0,32.3,25.0,19.0,0000.0,0008.33,0006.34,0006.26
2021-11-01 19:21:00,,0832.1,5.01,0.00,23.3,22.4,00.0,32.3,25.0,19.0,0000.0,0008.33,0006.35,0006.27
2021-11-01 19:22:00,,0832.1,5.00,0.00,23.2,22.4,00.0,32.3,25.0,18.9,0000.0,0008.34,0006.36,0006.28
2021-11-01 19:23:00,,0832.1,5.01,0.00,23.2,22.4,00.0,32.3,25.0,18.8,0000.0,0008.31,0006.36,0006.28
2021-11-01 19:24:00,,0832.1,5.00,0.00,23.2,22.4,00.0,32.3,25.0,18.8,0000.0,0008.29,0006.36,0006.29
2021-11-01 19:25:00,,0832.1,5.00,0.00,23.3,22.4,00.0,32.3,25.1,18.9,0000.0,0008.29,0006.38,0006.30
2021-11-01 19:26:00,,0832.1,5.00,0.00,23.3,22.5,00.0,32.3,25.0,19.1,0000.0,0008.29,0006.39,0006.32
2021-11-01 19:27:00,,0832.1,5.00,0.00,23.3,22.5,00.0,32.3,25.1,19.0,0000.0,0008.04,0006.41,0006.34
2021-11-01 19:28:00,,0832.1,5.00,0.00,23.3,22.5,00.0,32.3,25.1,18.9,0000.0,0007.70,0006.45,0006.36
2021-11-01 19:29:00,,0832.0,5.01,0.00,23.3,22.5,00.0,32.3,25.1,18.8,0000.0,0007.74,0006.46,0006.37
2021-11-01 19:30:00,,0832.1,4.99,0.00,23.3,22.5,00.0,32.3,25.1,18.8,0000.0,0007.83,0006.46,0006.38
2021-11-01 19:31:00,,0832.1,5.01,0.00,23.3,22.5,00.0,32.3,25.1,18.9,0000.0,0008.12,0006.47,0006.38
2021-11-01 19:32:00,,0832.1,5.01,0.00,23.3,22.5,00.0,32.3,25.1,19.0,0000.0,0008.09,0006.47,0006.39
2021-11-01 19:33:00,,0832.1,5.00,0.00,23.3,22.5,00.0,32.3,25.1,19.1,0000.0,0008.07,0006.46,0006.38
2021-11-01 19:34:00,,0832.1,4.99,0.00,23.3,22.5,00.0,32.3,25.1,19.1,0000.0,0008.06,0006.45,0006.37
2021-11-01 19:35:00,,0832.1,5.01,0.00,23.3,22.5,00.0,32.3,25.1,19.3,0000.0,0008.06,0006.44,0006.37
2021-11-01 19:36:00,,0832.1,5.01,0.00,23.3,22.5,00.0,32.3,25.1,19.4,0000.0,0008.23,0006.45,0006.36
2021-11-01 19:37:00,,0832.1,4.99,0.00,23.3,22.5,00.0,32.3,25.1,19.2,0000.0,0008.43,0006.44,0006.36
2021-11-01 19:38:00,,0832.1,5.01,0.00,23.3,22.5,00.0,32.3,25.1,19.0,0000.0,0008.43,0006.43,0006.35
2021-11-01 19:39:00,,0832.1,4.99,0.00,23.3,22.5,00.0,32.3,25.1,19.0,0000.0,0008.45,0006.40,0006.32
2021-11-01 19:40:00,,0832.1,5.01,0.00,23.3,22.5,00.0,32.3,25.1,18.9,0000.0,0008.39,0006.38,0006.30
2021-11-01 19:41:00,,0832.0,5.00,0.00,23.3,22.5,00.0,32.3,25.1,18.9,0000.0,0008.27,0006.37,0006.28
2021-11-01 19:42:00,,0831.9,5.02,0.00,23.3,22.5,00.0,32.3,25.1,19.0,0000.0,0008.02,0006.36,0006.27
2021-11-01 19:43:00,,0832.0,4.99,0.00,23.3,22.6,00.0,32.3,25.1,19.0,0000.0,0008.00,0006.35,0006.26
2021-11-01 19:44:00,,0832.0,5.00,0.00,23.3,22.6,00.0,32.3,25.1,19.1,0000.0,0008.00,0006.34,0006.25
2021-11-01 19:45:00,,0832.0,5.00,0.00,23.3,22.5,00.0,32.3,25.1,19.2,0000.0,0008.01,0006.33,0006.24
2021-11-01 19:46:00,,0832.0,5.00,0.00,23.3,22.5,00.0,32.3,25.1,19.1,0000.0,0008.03,0006.32,0006.21
2021-11-01 19:47:00,,0832.0,5.00,0.00,23.3,22.5,00.0,32.3,25.1,18.9,0000.0,0007.93,0006.30,0006.18
2021-11-01 19:48:00,,0832.0,4.99,0.00,23.3,22.5,00.0,32.3,25.1,19.0,0000.0,0007.75,0006.30,0006.16
2021-11-01 19:49:00,,0832.0,5.00,0.00,23.3,22.5,00.0,32.3,25.1,18.9,0000.0,0007.84,0006.30,0006.16
2021-11-01 19:50:00,,0831.9,5.00,0.00,23.3,22.5,00.0,32.3,25.1,19.0,0000.0,0007.84,0006.31,0006.16
2021-11-01 19:51:00,,0831.8,4.99,0.00,23.3,22.5,00.0,32.3,25.1,19.0,0000.0,0007.82,0006.30,0006.16
2021-11-01 19:52:00,,0831.8,5.00,0.00,23.3,22.5,00.0,32.3,25.1,19.0,0000.0,0007.82,0006.29,0006.16
2021-11-01 19:53:00,,0831.7,5.01,0.00,23.3,22.5,00.0,32.3,25.1,18.9,0000.0,0007.80,0006.27,0006.14
2021-11-01 19:54:00,,0831.7,4.99,0.00,23.3,22.5,00.0,32.3,25.1,18.9,0000.0,0007.76,0006.24,0006.11
2021-11-01 19:55:00,,0831.7,5.01,0.00,23.3,22.5,00.0,32.3,25.1,19.0,0000.0,0007.73,0006.20,0006.07
2021-11-01 19:56:00,,0831.7,4.99,0.00,23.3,22.5,00.0,32.3,25.1,19.2,0000.0,0007.71,0006.16,0006.03
2021-11-01 19:57:00,,0831.7,5.00,0.00,23.3,22.5,00.0,32.3,25.1,19.2,0000.0,0007.67,0006.15,0006.02
2021-11-01 19:58:00,,0831.7,5.00,0.00,23.3,22.5,00.0,32.3,25.1,19.0,0000.0,0007.62,0006.13,0006.02
2021-11-01 19:59:00,,0831.8,5.01,0.00,23.3,22.5,00.0,32.3,25.1,19.1,0000.0,0007.58,0006.12,0006.03
